Zurück zum Katalog

APOLINK IPOS

AktivKommunikationSSO
NORAD 69877·PAYLOAD·🇺🇸 United States
Dieser Satellitenname wurde noch nicht durch offizielle Quellen bestätigt.

Gestartet Jul 7, 2026 von Vandenberg Space Force Base

Loading…

Nächste Überflüge (nächste 24 Stunden)

TLE

AktuellSource: Space-Track

Epoche: Sep 13, 2026, 23:23 UTC

1 69877U 26156J   26256.97460996  .00002618  00000-0  26616-3 0  9999
2 69877  97.7461 156.2588 0003321 281.9442  78.1404 14.91639701 10238

Verfolge APOLINK IPOS in Echtzeit mit AllMySat

Download on the App Store